EDT,Max TemperatureF,Mean TemperatureF,Min TemperatureF,Max Dew PointF,MeanDew PointF,Min DewpointF,Max Humidity, Mean Humidity, Min Humidity, Max Sea Level PressureIn, Mean Sea Level PressureIn, Min Sea Level PressureIn, Max VisibilityMiles, Mean VisibilityMiles, Min VisibilityMiles, Max Wind SpeedMPH, Mean Wind SpeedMPH, Max Gust SpeedMPH,PrecipitationIn, CloudCover, Events, WindDirDegrees
2013-8-1,78,64,51,63,57,46,88,72,44,30.05,29.97,29.89,10,10,5,12,2,18,0.00,3,,168
2013-8-2,82,72,62,63,60,54,94,75,37,29.88,29.81,29.76,10,8,3,13,4,18,0.51,5,,230
2013-8-3,78,66,55,57,55,52,88,66,39,29.85,29.79,29.75,10,10,9,17,5,25,0.00,3,,250
2013-8-4,78,64,50,55,51,46,88,64,36,29.86,29.80,29.76,10,10,10,16,6,22,0.00,1,Thunderstorm,285
2013-8-5,73,60,46,50,45,39,82,55,33,30.04,29.93,29.86,10,10,10,17,8,24,0.00,0,,278
2013-8-6,75,58,42,52,45,37,93,60,34,30.16,30.11,30.04,10,10,9,8,3,,0.00,0,,205
2013-8-7,77,62,46,59,51,43,88,66,38,30.19,30.16,30.12,10,10,9,10,2,,0.00,1,,176
2013-8-8,82,71,60,68,61,52,88,73,58,30.12,30.05,29.99,10,10,5,12,5,16,0.05,5,,198
2013-8-9,73,68,62,68,65,61,94,86,78,30.02,29.88,29.72,10,9,0,12,4,22,0.66,7,Thunderstorm,190
2013-8-10,80,68,57,64,55,45,94,60,30,30.01,29.87,29.77,10,10,10,17,7,25,0.00,0,,275
2013-8-11,77,62,46,57,49,43,88,64,36,30.06,30.03,29.99,10,10,10,10,4,18,0.00,1,,278
2013-8-12,80,65,50,59,52,45,94,64,30,30.02,29.96,29.91,10,10,5,13,3,17,0.00,0,,267
2013-8-13,73,64,55,63,59,52,88,79,64,29.91,29.80,29.69,10,9,4,16,2,22,0.00,5,,190
2013-8-14,73,63,53,61,52,45,94,63,38,29.91,29.72,29.64,10,8,0,21,7,31,0.00,3,,271
2013-8-15,75,62,48,54,47,45,87,58,36,30.05,30.01,29.92,10,10,10,18,7,23,0.00,1,,261
2013-8-16,78,66,53,55,51,46,88,58,34,30.18,30.13,30.12,10,10,7,8,3,,0.00,1,,212
2013-8-17,78,63,48,55,50,45,88,66,39,30.28,30.25,30.18,10,10,8,10,2,,0.00,1,,194
2013-8-18,80,66,51,63,55,46,88,71,45,30.28,30.20,30.06,10,10,6,8,2,,0.00,1,,201
2013-8-19,82,66,50,59,55,46,88,65,39,30.06,29.98,29.92,10,9,1,14,4,20,0.00,0,,257
2013-8-20,86,70,53,63,57,50,94,69,40,30.08,30.03,29.96,10,8,2,9,2,17,0.00,0,,224
2013-8-21,89,72,55,64,59,52,88,66,35,30.13,30.07,30.00,10,8,2,10,2,16,0.00,0,,215
2013-8-22,89,73,57,66,60,54,88,66,36,30.01,29.91,29.80,10,8,1,15,4,21,0.00,1,,227
2013-8-23,80,66,51,64,51,43,78,52,26,30.15,29.95,29.79,10,10,10,20,9,28,0.00,1,,338
2013-8-24,77,60,42,48,43,37,87,59,26,30.32,30.27,30.15,10,10,10,8,2,,0.00,0,,352
2013-8-25,78,61,44,52,48,39,87,61,36,30.36,30.27,30.16,10,10,9,10,3,,0.00,0,,195
2013-8-26,80,70,60,64,60,52,88,74,54,30.15,29.99,29.87,10,9,3,10,4,16,0.16,5,,241
2013-8-27,82,71,60,64,61,55,94,70,51,29.90,29.88,29.85,10,8,0,10,3,,0.00,1,,63
2013-8-28,80,68,55,64,60,52,94,77,54,30.01,29.92,29.87,10,8,1,10,2,,0.20,3,,113
2013-8-29,68,64,60,63,58,55,94,81,64,30.10,30.06,29.98,10,9,3,15,6,22,0.02,8,,56
2013-8-30,84,72,60,64,60,55,88,71,48,30.03,29.89,29.79,10,10,5,10,3,,0.00,5,,231
2013-8-31,80,74,68,70,66,63,88,75,58,29.82,29.79,29.77,10,9,4,10,4,,0.00,5,,209